Location: Guferjoch
(46.7462°N, 8.4506°E)
Time: 13:01:31
(UTC+00:00)

Cosmos 1697 Rocket - Pass Details

Date: 14 July 2020
Orbit: 834 x 842 km, 71.0° (Epoch: 06 August)

Event Time Altitude Azimuth Distance (km) Brightness Sun altitude
Rises 02:08:39 0° 328° (NNW) 3,397 6.1 -13.0°
Reaches altitude 10° 02:11:12 10° 321° (NW) 2,457 5.3 -12.8°
Maximum altitude 02:16:29 43° 252° (WSW) 1,166 3.1 -12.2°
Drops below altitude 10° 02:21:43 10° 183° (S) 2,437 4.6 -11.7°
Enters shadow 02:22:19 - 181° (S) 2,652 4.8 -11.6°
